Time,TemperatureF,DewpointF,PressureIn,WindDirection,WindDirectionDegrees,WindSpeedMPH,WindSpeedGustMPH,Humidity,HourlyPrecipIn,Conditions,Clouds,dailyrainin,SoftwareType,DateUTC
2013-01-21 00:03:00,-2.0,-8.0,-100.00,WNW,300,10.0,15.0,77,-99.99,,,-99.99,,2013-01-21 06:03:00,
2013-01-21 00:12:00,0.0,-9.0,-100.00,NW,310,15.0,24.0,64,-99.99,,,-99.99,,2013-01-21 06:12:00,
2013-01-21 00:23:00,0.0,-9.0,-100.00,NW,310,15.0,24.0,64,-99.99,,,-99.99,,2013-01-21 06:23:00,
2013-01-21 00:33:00,0.0,-9.0,-100.00,NW,310,16.0,22.0,64,-99.99,,,-99.99,,2013-01-21 06:33:00,
2013-01-21 00:43:00,0.0,-9.0,-100.00,NW,310,16.0,22.0,64,-99.99,,,-99.99,,2013-01-21 06:43:00,
2013-01-21 00:52:00,-2.0,-9.0,-100.00,WNW,300,15.0,23.0,70,-99.99,,,-99.99,,2013-01-21 06:52:00,
2013-01-21 01:03:00,-2.0,-9.0,-100.00,WNW,300,15.0,23.0,70,-99.99,,,-99.99,,2013-01-21 07:03:00,
2013-01-21 01:12:00,-2.0,-9.0,-100.00,WNW,300,15.0,23.0,70,-99.99,,,-99.99,,2013-01-21 07:12:00,
2013-01-21 01:22:00,-2.0,-9.0,-100.00,WNW,300,15.0,23.0,70,-99.99,,,-99.99,,2013-01-21 07:22:00,
2013-01-21 01:33:00,-2.0,-11.0,30.33,NNW,330,15.0,28.0,64,-99.99,,,-99.99,,2013-01-21 07:33:00,
2013-01-21 01:43:00,-2.0,-11.0,30.33,NNW,330,15.0,28.0,64,-99.99,,,-99.99,,2013-01-21 07:43:00,
2013-01-21 01:53:00,-4.0,-13.0,30.33,NW,320,16.0,23.0,64,-99.99,,,-99.99,,2013-01-21 07:53:00,
2013-01-21 02:03:00,-4.0,-13.0,30.33,NW,320,16.0,23.0,64,-99.99,,,-99.99,,2013-01-21 08:03:00,
2013-01-21 02:13:00,-4.0,-15.0,30.33,NW,320,14.0,20.0,58,-99.99,,,-99.99,,2013-01-21 08:13:00,
2013-01-21 02:23:00,-4.0,-15.0,30.33,NW,320,14.0,20.0,58,-99.99,,,-99.99,,2013-01-21 08:23:00,
2013-01-21 02:32:00,-4.0,-15.0,30.33,NW,320,14.0,20.0,58,-99.99,,,-99.99,,2013-01-21 08:32:00,
2013-01-21 02:42:00,-4.0,-15.0,30.33,NW,320,14.0,20.0,58,-99.99,,,-99.99,,2013-01-21 08:42:00,
2013-01-21 02:53:00,-4.0,-13.0,-100.00,WNW,300,13.0,20.0,64,-99.99,,,-99.99,,2013-01-21 08:53:00,
2013-01-21 03:03:00,-4.0,-13.0,-100.00,WNW,300,13.0,20.0,64,-99.99,,,-99.99,,2013-01-21 09:03:00,
2013-01-21 03:12:00,-4.0,-13.0,-100.00,NW,310,14.0,20.0,64,-99.99,,,-99.99,,2013-01-21 09:12:00,
2013-01-21 03:23:00,-4.0,-13.0,-100.00,NW,310,14.0,20.0,64,-99.99,,,-99.99,,2013-01-21 09:23:00,
2013-01-21 03:33:00,-4.0,-15.0,-100.00,NW,320,14.0,-999.0,58,-99.99,,,-99.99,,2013-01-21 09:33:00,
2013-01-21 03:42:00,-4.0,-15.0,-100.00,NW,320,14.0,-999.0,58,-99.99,,,-99.99,,2013-01-21 09:42:00,
2013-01-21 03:52:00,-6.0,-15.0,-100.00,NW,320,12.0,16.0,64,-99.99,,,-99.99,,2013-01-21 09:52:00,
2013-01-21 04:02:00,-6.0,-15.0,-100.00,NW,320,12.0,16.0,64,-99.99,,,-99.99,,2013-01-21 10:02:00,
2013-01-21 04:12:00,-6.0,-15.0,-100.00,NW,310,12.0,16.0,64,-99.99,,,-99.99,,2013-01-21 10:12:00,
2013-01-21 04:22:00,-6.0,-15.0,-100.00,NW,310,12.0,16.0,64,-99.99,,,-99.99,,2013-01-21 10:22:00,
2013-01-21 04:32:00,-6.0,-17.0,-100.00,NW,320,16.0,23.0,58,-99.99,,,-99.99,,2013-01-21 10:32:00,
2013-01-21 04:43:00,-6.0,-17.0,-100.00,NW,320,16.0,23.0,58,-99.99,,,-99.99,,2013-01-21 10:43:00,
2013-01-21 04:52:00,-6.0,-17.0,30.31,NW,320,13.0,21.0,58,-99.99,,,-99.99,,2013-01-21 10:52:00,
2013-01-21 05:02:00,-6.0,-17.0,30.31,NW,320,13.0,21.0,58,-99.99,,,-99.99,,2013-01-21 11:02:00,
2013-01-21 05:13:00,-6.0,-17.0,30.32,NW,320,15.0,-999.0,58,-99.99,,,-99.99,,2013-01-21 11:13:00,
2013-01-21 05:23:00,-6.0,-17.0,30.32,NW,320,15.0,-999.0,58,-99.99,,,-99.99,,2013-01-21 11:23:00,
2013-01-21 05:33:00,-6.0,-17.0,30.32,NNW,330,13.0,20.0,58,-99.99,,,-99.99,,2013-01-21 11:33:00,
2013-01-21 05:42:00,-6.0,-17.0,30.32,NNW,330,13.0,20.0,58,-99.99,,,-99.99,,2013-01-21 11:42:00,
2013-01-21 05:53:00,-6.0,-17.0,30.31,NW,320,13.0,-999.0,58,-99.99,,,-99.99,,2013-01-21 11:53:00,
2013-01-21 06:02:00,-6.0,-17.0,30.31,NW,320,13.0,-999.0,58,-99.99,,,-99.99,,2013-01-21 12:02:00,
2013-01-21 06:12:00,-6.0,-17.0,30.31,NW,320,13.0,-999.0,58,-99.99,,,-99.99,,2013-01-21 12:12:00,
2013-01-21 06:22:00,-6.0,-17.0,30.31,NW,320,13.0,-999.0,58,-99.99,,,-99.99,,2013-01-21 12:22:00,
2013-01-21 06:32:00,-6.0,-17.0,30.31,NW,320,13.0,-999.0,58,-99.99,,,-99.99,,2013-01-21 12:32:00,
2013-01-21 06:43:00,-8.0,-17.0,30.31,NW,310,12.0,-999.0,63,-99.99,,,-99.99,,2013-01-21 12:43:00,
2013-01-21 06:53:00,-8.0,-17.0,-100.00,NW,310,9.0,-999.0,63,-99.99,,,-99.99,,2013-01-21 12:53:00,
2013-01-21 07:02:00,-8.0,-17.0,-100.00,NW,310,9.0,-999.0,63,-99.99,,,-99.99,,2013-01-21 13:02:00,
2013-01-21 07:13:00,-8.0,-17.0,-100.00,NW,310,9.0,-999.0,63,-99.99,,,-99.99,,2013-01-21 13:13:00,
2013-01-21 07:23:00,-8.0,-17.0,-100.00,NW,310,9.0,-999.0,63,-99.99,,,-99.99,,2013-01-21 13:23:00,
2013-01-21 07:33:00,-8.0,-17.0,30.30,WNW,300,9.0,-999.0,63,-99.99,,,-99.99,,2013-01-21 13:33:00,
2013-01-21 07:43:00,-8.0,-17.0,30.30,WNW,300,9.0,-999.0,63,-99.99,,,-99.99,,2013-01-21 13:43:00,
2013-01-21 07:53:00,-8.0,-17.0,30.31,WNW,300,10.0,-999.0,63,-99.99,,,-99.99,,2013-01-21 13:53:00,
2013-01-21 08:03:00,-8.0,-17.0,30.31,WNW,300,10.0,-999.0,63,-99.99,,,-99.99,,2013-01-21 14:03:00,
2013-01-21 08:12:00,-6.0,-17.0,30.30,WNW,300,9.0,-999.0,58,-99.99,,,-99.99,,2013-01-21 14:12:00,
2013-01-21 08:23:00,-6.0,-17.0,30.30,WNW,300,9.0,-999.0,58,-99.99,,,-99.99,,2013-01-21 14:23:00,
2013-01-21 08:32:00,-6.0,-17.0,30.30,NW,310,12.0,18.0,58,-99.99,,,-99.99,,2013-01-21 14:32:00,
2013-01-21 08:43:00,-6.0,-17.0,30.30,NW,310,12.0,18.0,58,-99.99,,,-99.99,,2013-01-21 14:43:00,
2013-01-21 08:53:00,-6.0,-17.0,-100.00,WNW,300,12.0,18.0,58,-99.99,,,-99.99,,2013-01-21 14:53:00,
2013-01-21 09:03:00,-6.0,-17.0,-100.00,WNW,300,12.0,18.0,58,-99.99,,,-99.99,,2013-01-21 15:03:00,
2013-01-21 09:13:00,-6.0,-15.0,-100.00,WNW,300,12.0,21.0,64,-99.99,,,-99.99,,2013-01-21 15:13:00,
2013-01-21 09:23:00,-6.0,-15.0,-100.00,WNW,300,12.0,21.0,64,-99.99,,,-99.99,,2013-01-21 15:23:00,
2013-01-21 09:33:00,-6.0,-15.0,-100.00,NW,310,12.0,22.0,64,-99.99,,,-99.99,,2013-01-21 15:33:00,
2013-01-21 09:43:00,-6.0,-15.0,-100.00,NW,310,12.0,22.0,64,-99.99,,,-99.99,,2013-01-21 15:43:00,
2013-01-21 09:53:00,-6.0,-15.0,30.32,NW,310,12.0,17.0,64,-99.99,,,-99.99,,2013-01-21 15:53:00,
2013-01-21 10:12:00,-4.0,-15.0,30.33,NW,310,9.0,-999.0,58,-99.99,,,-99.99,,2013-01-21 16:12:00,
2013-01-21 10:23:00,-4.0,-15.0,30.33,NW,310,9.0,-999.0,58,-99.99,,,-99.99,,2013-01-21 16:23:00,
2013-01-21 10:33:00,-4.0,-15.0,30.33,WNW,300,12.0,-999.0,58,-99.99,,,-99.99,,2013-01-21 16:33:00,
2013-01-21 10:43:00,-4.0,-15.0,30.33,WNW,300,12.0,-999.0,58,-99.99,,,-99.99,,2013-01-21 16:43:00,
2013-01-21 10:53:00,-4.0,-15.0,30.34,WNW,300,13.0,-999.0,58,-99.99,,,-99.99,,2013-01-21 16:53:00,
2013-01-21 11:02:00,-4.0,-15.0,30.34,WNW,300,13.0,-999.0,58,-99.99,,,-99.99,,2013-01-21 17:02:00,
2013-01-21 11:12:00,-2.0,-13.0,30.34,WNW,300,10.0,17.0,59,-99.99,,,-99.99,,2013-01-21 17:12:00,
2013-01-21 11:23:00,-2.0,-13.0,30.34,WNW,300,10.0,17.0,59,-99.99,,,-99.99,,2013-01-21 17:23:00,
2013-01-21 11:33:00,-2.0,-15.0,30.34,West,280,13.0,-999.0,53,-99.99,,,-99.99,,2013-01-21 17:33:00,
2013-01-21 11:43:00,-2.0,-15.0,30.34,West,280,13.0,-999.0,53,-99.99,,,-99.99,,2013-01-21 17:43:00,
2013-01-21 11:52:00,-2.0,-11.0,30.33,WNW,300,13.0,20.0,64,-99.99,,,-99.99,,2013-01-21 17:52:00,
2013-01-21 12:03:00,-2.0,-11.0,30.33,WNW,300,13.0,20.0,64,-99.99,,,-99.99,,2013-01-21 18:03:00,
2013-01-21 12:12:00,-2.0,-13.0,30.31,WNW,300,13.0,17.0,59,-99.99,,,-99.99,,2013-01-21 18:12:00,
2013-01-21 12:22:00,-2.0,-13.0,30.31,WNW,300,13.0,17.0,59,-99.99,,,-99.99,,2013-01-21 18:22:00,
2013-01-21 12:33:00,0.0,-11.0,30.30,WNW,300,14.0,18.0,59,-99.99,,,-99.99,,2013-01-21 18:33:00,
2013-01-21 12:42:00,0.0,-11.0,30.30,WNW,300,14.0,18.0,59,-99.99,,,-99.99,,2013-01-21 18:42:00,
2013-01-21 12:52:00,0.0,-9.0,30.30,WNW,290,10.0,20.0,64,-99.99,,,-99.99,,2013-01-21 18:52:00,
2013-01-21 13:03:00,0.0,-9.0,30.30,WNW,290,10.0,20.0,64,-99.99,,,-99.99,,2013-01-21 19:03:00,
2013-01-21 13:12:00,1.0,-9.0,30.29,West,270,16.0,-999.0,59,-99.99,,,-99.99,,2013-01-21 19:12:00,
2013-01-21 13:22:00,1.0,-9.0,30.29,West,270,16.0,-999.0,59,-99.99,,,-99.99,,2013-01-21 19:22:00,
2013-01-21 13:33:00,1.0,-9.0,30.28,WNW,300,13.0,17.0,59,-99.99,,,-99.99,,2013-01-21 19:33:00,
2013-01-21 13:43:00,1.0,-9.0,30.28,WNW,300,13.0,17.0,59,-99.99,,,-99.99,,2013-01-21 19:43:00,
2013-01-21 13:53:00,1.0,-9.0,30.28,WNW,290,13.0,17.0,59,-99.99,,,-99.99,,2013-01-21 19:53:00,
2013-01-21 14:03:00,1.0,-9.0,30.28,WNW,290,13.0,17.0,59,-99.99,,,-99.99,,2013-01-21 20:03:00,
2013-01-21 14:12:00,1.0,-8.0,30.27,WNW,290,12.0,16.0,65,-99.99,,,-99.99,,2013-01-21 20:12:00,
2013-01-21 14:23:00,1.0,-8.0,30.27,WNW,290,12.0,16.0,65,-99.99,,,-99.99,,2013-01-21 20:23:00,
2013-01-21 14:33:00,1.0,-8.0,30.27,West,270,10.0,15.0,65,-99.99,,,-99.99,,2013-01-21 20:33:00,
2013-01-21 14:43:00,1.0,-8.0,30.27,West,270,10.0,15.0,65,-99.99,,,-99.99,,2013-01-21 20:43:00,
2013-01-21 14:53:00,1.0,-8.0,30.28,West,270,12.0,17.0,65,-99.99,,,-99.99,,2013-01-21 20:53:00,
2013-01-21 15:03:00,1.0,-8.0,30.28,West,270,12.0,17.0,65,-99.99,,,-99.99,,2013-01-21 21:03:00,
2013-01-21 15:12:00,1.0,-8.0,30.28,West,280,13.0,17.0,65,-99.99,,,-99.99,,2013-01-21 21:12:00,
2013-01-21 15:23:00,1.0,-8.0,30.28,West,280,13.0,17.0,65,-99.99,,,-99.99,,2013-01-21 21:23:00,
2013-01-21 15:33:00,3.0,-8.0,30.27,West,270,16.0,-999.0,59,-99.99,,,-99.99,,2013-01-21 21:33:00,
2013-01-21 15:43:00,3.0,-8.0,30.27,West,270,16.0,-999.0,59,-99.99,,,-99.99,,2013-01-21 21:43:00,
2013-01-21 15:53:00,3.0,-8.0,30.28,West,270,13.0,-999.0,59,-99.99,,,-99.99,,2013-01-21 21:53:00,
2013-01-21 16:03:00,3.0,-8.0,30.28,West,270,13.0,-999.0,59,-99.99,,,-99.99,,2013-01-21 22:03:00,
2013-01-21 16:12:00,3.0,-8.0,30.28,West,270,13.0,-999.0,59,-99.99,,,-99.99,,2013-01-21 22:12:00,
2013-01-21 16:23:00,3.0,-8.0,30.27,WNW,290,9.0,-999.0,59,-99.99,,,-99.99,,2013-01-21 22:23:00,
2013-01-21 16:33:00,1.0,-8.0,30.27,WNW,290,7.0,-999.0,65,-99.99,,,-99.99,,2013-01-21 22:33:00,
2013-01-21 16:43:00,1.0,-8.0,30.27,WNW,290,7.0,-999.0,65,-99.99,,,-99.99,,2013-01-21 22:43:00,
2013-01-21 16:52:00,1.0,-8.0,30.26,West,280,7.0,-999.0,65,-99.99,,,-99.99,,2013-01-21 22:52:00,
2013-01-21 17:03:00,1.0,-8.0,30.26,West,280,7.0,-999.0,65,-99.99,,,-99.99,,2013-01-21 23:03:00,
2013-01-21 17:12:00,1.0,-8.0,30.26,North,0,0.0,-999.0,65,-99.99,,,-99.99,,2013-01-21 23:12:00,
2013-01-21 17:23:00,1.0,-8.0,30.26,North,0,0.0,-999.0,65,-99.99,,,-99.99,,2013-01-21 23:23:00,
2013-01-21 17:33:00,0.0,-9.0,30.26,North,0,0.0,-999.0,64,-99.99,,,-99.99,,2013-01-21 23:33:00,
2013-01-21 17:42:00,0.0,-9.0,30.26,North,0,0.0,-999.0,64,-99.99,,,-99.99,,2013-01-21 23:42:00,
2013-01-21 17:53:00,0.0,-8.0,30.26,West,280,5.0,-999.0,70,-99.99,,,-99.99,,2013-01-21 23:53:00,
2013-01-21 18:02:00,0.0,-8.0,30.26,West,280,5.0,-999.0,70,-99.99,,,-99.99,,2013-01-22 00:02:00,
2013-01-21 18:12:00,0.0,-9.0,30.26,North,0,0.0,-999.0,64,-99.99,,,-99.99,,2013-01-22 00:12:00,
2013-01-21 18:22:00,0.0,-9.0,30.26,North,0,0.0,-999.0,64,-99.99,,,-99.99,,2013-01-22 00:22:00,
2013-01-21 18:33:00,-2.0,-9.0,30.26,North,0,0.0,-999.0,70,-99.99,,,-99.99,,2013-01-22 00:33:00,
2013-01-21 18:43:00,-2.0,-9.0,30.26,North,0,0.0,-999.0,70,-99.99,,,-99.99,,2013-01-22 00:43:00,
2013-01-21 18:53:00,-2.0,-9.0,-100.00,North,0,0.0,-999.0,70,-99.99,,,-99.99,,2013-01-22 00:53:00,
2013-01-21 19:02:00,-2.0,-9.0,-100.00,North,0,0.0,-999.0,70,-99.99,,,-99.99,,2013-01-22 01:02:00,
2013-01-21 19:12:00,-2.0,-9.0,-100.00,North,0,0.0,-999.0,70,-99.99,,,-99.99,,2013-01-22 01:12:00,
2013-01-21 19:23:00,-2.0,-9.0,-100.00,North,0,0.0,-999.0,70,-99.99,,,-99.99,,2013-01-22 01:23:00,
2013-01-21 19:32:00,-2.0,-9.0,-100.00,North,0,0.0,-999.0,70,-99.99,,,-99.99,,2013-01-22 01:32:00,
2013-01-21 19:42:00,-2.0,-9.0,-100.00,North,0,0.0,-999.0,70,-99.99,,,-99.99,,2013-01-22 01:42:00,
2013-01-21 19:52:00,-2.0,-9.0,-100.00,North,0,0.0,-999.0,70,-99.99,,,-99.99,,2013-01-22 01:52:00,
2013-01-21 20:02:00,-2.0,-9.0,-100.00,North,0,0.0,-999.0,70,-99.99,,,-99.99,,2013-01-22 02:02:00,
2013-01-21 20:12:00,-2.0,-9.0,-100.00,North,0,0.0,-999.0,70,-99.99,,,-99.99,,2013-01-22 02:12:00,
2013-01-21 20:22:00,-2.0,-9.0,-100.00,North,0,0.0,-999.0,70,-99.99,,,-99.99,,2013-01-22 02:22:00,
2013-01-21 20:32:00,-2.0,-9.0,30.24,North,0,0.0,-999.0,70,-99.99,,,-99.99,,2013-01-22 02:32:00,
2013-01-21 20:43:00,-2.0,-9.0,30.24,North,0,0.0,-999.0,70,-99.99,,,-99.99,,2013-01-22 02:43:00,
2013-01-21 20:53:00,-2.0,-9.0,30.26,North,0,0.0,-999.0,70,-99.99,,,-99.99,,2013-01-22 02:53:00,
2013-01-21 21:02:00,-2.0,-9.0,30.26,North,0,0.0,-999.0,70,-99.99,,,-99.99,,2013-01-22 03:02:00,
2013-01-21 21:12:00,0.0,-8.0,30.26,North,0,0.0,-999.0,70,-99.99,,,-99.99,,2013-01-22 03:12:00,
2013-01-21 21:22:00,0.0,-8.0,30.26,North,0,0.0,-999.0,70,-99.99,,,-99.99,,2013-01-22 03:22:00,
2013-01-21 21:32:00,0.0,-8.0,30.26,North,0,0.0,-999.0,70,-99.99,,,-99.99,,2013-01-22 03:32:00,
2013-01-21 21:42:00,0.0,-8.0,30.26,North,0,0.0,-999.0,70,-99.99,,,-99.99,,2013-01-22 03:42:00,
2013-01-21 21:52:00,0.0,-8.0,30.25,North,0,0.0,-999.0,70,-99.99,,,-99.99,,2013-01-22 03:52:00,
2013-01-21 22:02:00,0.0,-8.0,30.25,North,0,0.0,-999.0,70,-99.99,,,-99.99,,2013-01-22 04:02:00,
2013-01-21 22:12:00,0.0,-8.0,30.25,North,0,0.0,-999.0,70,-99.99,,,-99.99,,2013-01-22 04:12:00,
2013-01-21 22:22:00,0.0,-8.0,30.25,North,0,0.0,-999.0,70,-99.99,,,-99.99,,2013-01-22 04:22:00,
2013-01-21 22:32:00,3.0,-4.0,30.25,WNW,290,6.0,-999.0,71,-99.99,,,-99.99,,2013-01-22 04:32:00,
2013-01-21 22:42:00,3.0,-4.0,30.25,WNW,290,6.0,-999.0,71,-99.99,,,-99.99,,2013-01-22 04:42:00,
2013-01-21 22:52:00,3.0,-4.0,30.24,North,0,0.0,-999.0,71,-99.99,,,-99.99,,2013-01-22 04:52:00,
2013-01-21 23:04:00,3.0,-4.0,30.24,North,0,0.0,-999.0,71,-99.99,,,-99.99,,2013-01-22 05:04:00,
2013-01-21 23:12:00,3.0,-4.0,30.25,North,0,0.0,-999.0,71,-99.99,,,-99.99,,2013-01-22 05:12:00,
2013-01-21 23:22:00,3.0,-4.0,30.25,North,0,0.0,-999.0,71,-99.99,,,-99.99,,2013-01-22 05:22:00,
2013-01-21 23:32:00,3.0,-4.0,30.25,North,0,0.0,-999.0,71,-99.99,,,-99.99,,2013-01-22 05:32:00,
2013-01-21 23:42:00,3.0,-4.0,30.24,WNW,290,5.0,-999.0,71,-99.99,,,-99.99,,2013-01-22 05:42:00,
2013-01-21 23:52:00,3.0,-2.0,30.24,WNW,300,7.0,-999.0,77,-99.99,,,-99.99,,2013-01-22 05:52:00,